THOR ABLESTAR DEB, 243

Orbit data source: Space-Track

THOR ABLESTAR DEB, 243 is space debris in LEO originally from a launch on Thu, 29 Jun 1961 UTC launched from the Air Force Eastern Test Range (AFETR). Debris objects in space refer to the collection of defunct objects orbiting the Earth. Examples of debris include non-operational satellites, rocket bodies, and fragments generated from explosions, collisions, or faulty payload assembly.

Loading next visibility...
Identifier
243, 1961-015BY
Orbit
LEO
Country
Flag of USUS
Related business
Manufacturer
Unknown
Mission
Spacecraft
Bus & Motor
Unknown
Mass
Unknown
Launch date (UTC)
1961-06-29 (64 years ago)
Launch vehicle
Unknown
Launch site
Air Force Eastern Test Range (AFETR)
Object type
Payload
Rocket body
Debris
Shape & HBR
Unknown shape, 0.1 m
Radar Cross Section
Small (<0.1 m²)

Expand to show TLE details & history
Last TLE update: 7 hours ago

TLE from 7 hours ago
0 THOR ABLESTAR DEB
1 00243U 61015BY  25291.29174965  .00001349  00000-0  94160-3 0  9994
2 00243  66.4617 253.5151 0035618 248.6145 111.1134 14.01409471249396
Epoch: 2025-10-18T07:00Z
TLE epoch observation values (Epoch: 2025-10-18T07:00:07.169Z)
Latitude
-0.00009°
Longitude
121.46032°
Altitude
900.384 km
Speed
7.398 km/s
True Right ascension
16h 54m 03s
True Declination
0° 00' 00"
Sunlit
Object was in daylight at epoch
Visualization orbit readout
Latitude
Unknown
Longitude
Unknown
Altitude
Unknown
Speed
Unknown
Apparent Right ascension
Unknown
Apparent Declination
Unknown
Sunlit
N/A
Visualization observer readout
Local Sidereal Time
09:12:01
Azimuth
Unknown
Elevation
Unknown
Doppler factor
Unknown
Orbital elements
Apogee altitude
913.221 km
Perigee altitude
861.465 km
Semi-major axis
7,265.48 km
Eccentricity
0.00356
Inclination
66.4617°
RAAN
253.5151°
Arg. of periapsis
248.6145°
True anomaly
111.49354°
Mean anomaly
111.1134°
Eccentric anomaly
111.30353°
Mean motion
3.50467 °/min
Orbital period
102.72 mins
BSTAR
0.0009416

Documentation

Showing up to 5 results
|